Regional Weather Roundup
Issued by NWS Charleston, SC

Current Version | Previous Version | Text Only | Print | Product List | Glossary Off
Versions: 1 2 3 4 5 6 7 8 9 10 11 12 13 14 15 16 17 18 19 20 21 22 23 24 25 26 27 28 29 30 31 32 33 34 35 36 37 38 39 40 41 42 43 44 45 46 47 48 49 50

000
ASUS42 KCHS 200327
RWRCHS

REGIONAL WEATHER ROUNDUP
NATIONAL WEATHER SERVICE CHARLESTON SC
1000 PM EST THU JAN 19 2017

NOTE: "FAIR" INDICATES FEW OR NO CLOUDS BELOW 12,000 FEET WITH NO
SIGNIFICANT WEATHER AND/OR OBSTRUCTIONS TO VISIBILITY.

NOT ALL STATIONS ARE QUALITY CONTROLLED. USE DATA WITH CAUTION...
ESPECIALLY DEWPOINT OBSERVATIONS.

SCZ027-030-031-034>040-042>050-200400-
...SOUTHEAST SOUTH CAROLINA...

CITY           SKY/WX    TMP DP  RH WIND       PRES   REMARKS
N CHARLESTON   PTCLDY    56  51  84 CALM      29.99R
WATERFRONT PRK   N/A     58  56  92 VRB3      29.97R
MOUNT PLEASANT LGT RAIN  55  54  94 CALM      29.99R
JOHNS ISLAND   FAIR      57  55  94 NE6       29.98S
PINOPOLIS        N/A     55  48  76 CALM      29.89R
MONCKS CORNER  FAIR      52  46  82 CALM      29.99R
SUMMERVILLE    FAIR      55  54  94 CALM      29.99F
BEAUFORT MCAS  CLOUDY    59  56  89 SE3       29.97S
BEAUFORT ARPT  FAIR      55  55 100 E5        29.97F
HILTON HEAD IS CLOUDY    57  55  94 CALM      29.98F
WALTERBORO     CLOUDY    55  52  88 E3        29.98F
ALLENDALE      FAIR      61  57  88 SE3       29.95F

...SOUTHERN MIDLANDS AND PEE DEE...

CITY           SKY/WX    TMP DP  RH WIND       PRES   REMARKS
GEORGETOWN     FAIR      50  50 100 CALM      30.01R
KINGSTREE      FAIR      50  46  87 CALM      29.99R
ORANGEBURG     CLOUDY    60  52  74 SE6       29.96F
BARNWELL       FAIR      63  57  82 SE6       29.96S
AIKEN          FAIR      57  50  77 SE5       29.99R
MANNING        FAIR      52  45  76 CALM      29.99S
COLUMBIA       CLOUDY    58  46  64 E3        29.96S
SUMTER         CLOUDY    53  46  74 CALM      29.96R
FLORENCE       CLOUDY    54  46  74 CALM      30.00R
MYRTLE BEACH   CLEAR     57  50  77 E7        30.00F
N MYRTLE BEACH PTCLDY    56  50  80 E7        29.98F

$$

GAZ063-065-086>088-099>101-113>116-118-119-134>141-150-200400-
...SOUTHEAST GEORGIA...

CITY           SKY/WX    TMP DP  RH WIND       PRES   REMARKS
SAVANNAH ARPT  FOG       58  56  93 E8        29.96F VSB 1/2
HUNTER AAF     CLEAR     57  57 100 E7        29.95S FOG
FORT STEWART   CLOUDY    57  54  89 CALM      29.94F
STATESBORO     PTCLDY    61  58  88 SE3       29.97R
SYLVANIA       MOCLDY   N/A N/A N/A CALM      29.97R
CLAXTON        FAIR     N/A N/A N/A CALM      29.96R

...CSRA...CENTRAL AND FAR SOUTHEAST GEORGIA...

CITY           SKY/WX    TMP DP  RH WIND       PRES   REMARKS
THOMSON        CLOUDY    62  54  75 E3        29.98S
AUGUSTA-BUSH   CLOUDY    63  51  65 SE6       29.94S
AUGUSTA-DANIEL CLOUDY    64  48  56 SE6       29.95S
SWAINSBORO     FAIR      64  59  82 SE8       29.95R
VIDALIA        CLOUDY    64  63  94 SE6       29.95R
EASTMAN        MOCLDY    66  54  65 S3        29.96R
HAZLEHURST     LGT RAIN  67  64  87 S5        29.94R
ALMA           PTCLDY    64  62  93 S5        29.95R
WAYCROSS       MOCLDY    67  67 100 S3        29.96R
JESUP          FAIR      61  59  94 CALM      29.97R
BAXLEY         FAIR      66  66 100 S5        29.95R
BRUNSWICK      CLOUDY    61  59  94 CALM      29.98R
SAINT SIMONS   CLOUDY    63  60  90 S5        29.96S

$$

SCZ027-028-034-036>038-045-046-048>050-GAZ119-141-200400-
...LAKE AND SUPPLEMENTAL COASTAL OBSERVATIONS...

STATION/POSITION TIME  TEMP    WIND        PRES    WAVE   SWELL
                       AIR SEA DIR/SP/G            HT/PER HT/PER/DIR
                 (UTC) (F)     (DEG/KT/KT) (MB)    (FT/S) (FT/S/D)
WINYAH BAY       0245   55      70/  4     1015.0F
LAKE MURRAY      0250   59      90/  4/  5 1014.2S
ACE BASIN NERRS  0230   57        CALM     1015.0S
FORT PULASKI     0300   58 58   90/  6/  7 1014.9
SAPELO ISLAND    0300   60      90/  1     1014.0

$$

ANZ835-935-AMZ111-154-330-350-352-354-370-450-454-472-200400-
...C-MAN AND BUOY OBSERVATIONS...

STATION/POSITION TIME  TEMP    WIND        PRES    WAVE   SWELL
                       AIR SEA DIR/SP/G            HT/PER HT/PER/DIR
                 (UTC) (F)     (DEG/KT/KT) (MB)    (FT/S) (FT/S/D)
BUOY 41004       0250   68 71   80/ 12/ 14 1014.1R   3/ 8   2/100/ 8
BUOY 41008       0250   61 60   90/  6/  8 1014.4R   1/ 9   2/ 70/ 9
FOLLY BEACH CMAN 0300   57      20/  4/  5 1015.7R
CAPERS NEARSHORE 0208   56 55   70/ 10/ 12 1014.6F
FRIPP NEARSHORE  0308   58 57   60/  4/  6 1014.7R


STATION/POSITION TIME  TEMP    WIND        PRES    WAVE   SWELL
                       AIR SEA DIR/SP/G            HT/PER HT/PER/DIR
                 (UTC) (F)     (DEG/KT/KT) (MB)    (FT/S) (FT/S/D)
5E ST. MARYS GA  0300      64                N/A     1/ 9
FRYING PAN BUOY  0310   64 70   90/ 10/ 14 1015.3
BUOY 41025       0250   55 77   40/  6/ 10 1016.9S   4/10   3/ 50/10
CAPE LOOKOUT NC  0300   57     100/  2/  3 1016.3F
BUOY 41002       0250   67 71  360/  4/  6 1016.0F   6/ 8   7/ 30/ 8
BUOY 41010       NOT AVBL
ST AUGUSTINE FL  0300   64 64  180/  4/  4 1015.6R


$$




USA.gov is the U.S. government's official web portal to all federal, state and local government web resources and services.